Location: Bothwell
(41.7170°N, 112.2589°W)
Time: 19:54:41
(UTC+00:00)

ACS3 Solar Sail - Pass Details

Date: 22 April 2026
Orbit: 894 x 947 km, 97.2° (Epoch: 12 May)

Event Time Altitude Azimuth Distance (km) Brightness Sun altitude
Rises 09:53:12 0° 359° (N) 3,551 5.4 -26.5°
Reaches altitude 10° 09:56:02 10° 346° (NNW) 2,613 4.4 -26.1°
Maximum altitude 10:00:34 24° 295° (WNW) 1,814 3.0 -25.6°
Enters shadow 10:00:37 24° 294° (WNW) 1,814 3.0 -25.5°
